[[{"header":{"parameterUnit":"m.s-1","parameterCategory":1,"la1":30.2991,"la2":30.254,"lo1":-89.0895,"lo2":-89.0444,"dy":0.0017,"dx":0.0017,"nx":28,"ny":28,"refTime":"2024-05-14T09:00:00:Z","depth":0,"parameterNumber":2,"parameterNumberName":"U-component_of_WINDS"},"data":[0,0,0,0,0,0,0,0,0,0,0,0,0,0,0,0,0,0,0,0,0,0,0,0,0,0,0,0,0,0,0,0,0,0,0,0,0,0,0,0,0,0,0,0,0,0,0,0,0,0,0,0,0,0,0,0,0,0,3.0574,3.0575,0,3.0643,3.0644,3.0645,3.0584,3.0582,3.0579,3.0577,3.0651,3.0655,3.0659,0,0,0,0,0,0,0,0,0,0,0,0,0,3.0393,3.0396,3.0574,3.0575,3.0576,3.0643,3.0644,3.0645,3.0585,3.0582,3.0579,3.0576,3.0649,3.0654,3.0659,0,0,0,0,0,0,0,0,0,0,0,0,0,3.0468,3.0397,3.0574,3.0554,3.0553,3.0643,3.0644,3.0645,3.0586,3.0582,3.0578,3.0575,3.0647,3.0654,3.066,3.0774,0,0,3.068,3.0682,0,0,0,0,0,0,0,0,3.0464,3.0474,3.0556,3.0555,3.0554,3.0601,3.0607,3.0689,3.0586,3.0573,3.0577,3.0573,3.0637,3.0644,3.0666,3.0778,3.0781,3.068,3.0684,3.0687,3.0689,0,0,0,0,0,0,0,3.0458,3.0471,3.0601,3.0557,3.0556,3.0542,3.0549,3.0622,3.0625,3.0574,3.057,3.0579,3.0636,3.066,3.0667,3.0782,3.068,3.0686,3.069,3.0692,3.0994,3.0998,0,0,0,0,0,0,3.0455,3.0467,3.0599,3.0603,3.0499,3.0549,3.0556,3.059,3.0624,3.0626,3.0582,3.0576,3.0651,3.066,3.0669,3.0806,3.0687,3.0693,3.0697,3.099,3.0995,3.0999,0,0,0,0,0,0,3.0451,3.0467,3.0596,3.0534,3.055,3.0556,3.0595,3.0593,3.0617,3.063,3.0631,3.0605,3.0648,3.066,3.0749,3.0808,3.0696,3.0702,3.0985,3.0991,3.0997,3.1081,0,0,0,0,0,0,3.0446,3.0466,3.0509,3.0536,3.0553,3.0674,3.0598,3.0597,3.0628,3.062,3.0652,3.0654,3.0646,3.074,3.0755,3.0815,3.0707,3.0979,3.0988,3.0995,3.1073,3.109,3.1104,0,0,0,0,0,3.044,3.053,3.0511,3.0528,3.0606,3.0677,3.0688,3.0676,3.0633,3.0676,3.0685,3.0653,3.0799,3.0749,3.0766,3.0829,3.0976,3.0985,3.0994,3.1066,3.1086,3.1103,0,0,0,0,0,0,3.051,3.0533,3.0512,3.0614,3.0644,3.0667,3.0721,3.0697,3.0741,3.0732,3.0717,3.0725,3.0819,3.0833,3.0777,3.0942,3.0881,3.0894,3.093,3.0949,3.0964,3.0958,3.0712,0,0,0,0,0,3.0537,3.0592,3.061,3.0697,3.0714,3.0715,3.0746,3.0734,3.0765,3.0778,3.0794,3.0826,3.0879,3.0915,3.0965,3.1075,3.1082,3.1127,3.1142,3.1154,3.1166,3.1227,3.1247,3.103,3.103,3.103,0,0,3.0594,3.0613,3.0649,3.0712,3.0734,3.0793,3.0726,3.0791,3.0834,3.0788,3.0873,3.0886,3.0921,3.1022,3.1067,3.1036,3.1228,3.1166,3.1176,3.1181,3.1239,3.1259,3.1278,3.1036,3.1035,3.1034,0,0,3.0727,3.0747,3.0823,3.0847,3.0881,3.0882,3.0901,3.0928,3.0935,3.1019,3.0986,3.1039,3.1131,3.1157,3.1183,3.1329,3.1301,3.1346,3.1425,3.1485,3.1502,3.1517,3.157,3.1589,3.1357,3.1358,3.1358,0,3.0794,3.0879,3.0865,3.0932,3.0961,3.0922,3.1,3.1024,3.1074,3.1095,3.106,3.1176,3.1197,3.1304,3.1339,3.1361,3.1383,3.1342,3.15,3.1516,3.1529,3.158,3.16,3.1363,3.1362,3.1362,3.1361,0,3.096,3.102,3.1077,3.1126,3.1162,3.1234,3.1231,3.127,3.1256,3.1261,3.1349,3.1373,3.1427,3.1452,3.1439,3.1558,3.1538,3.1502,3.144,3.1556,3.1603,3.1622,3.137,3.1368,3.1367,3.1366,0,0,3.1138,3.1178,3.12,3.1222,3.1258,3.1305,3.1376,3.1429,3.1463,3.1499,3.1559,3.1639,3.1606,3.1636,3.1626,3.1678,3.1794,3.1636,3.1637,3.1665,3.1927,3.1954,3.1976,3.1776,3.1779,3.1782,3.1924,0,3.1273,3.1395,3.1385,3.1502,3.1558,3.1523,3.1585,3.1615,3.1622,3.1672,3.168,3.1737,3.169,3.1708,3.1758,3.1769,3.1846,3.1758,3.1832,3.1835,3.1824,3.2001,3.2029,3.2162,3.1943,3.1946,3.1948,0,3.1446,3.1488,3.161,3.1639,3.1663,3.1719,3.1767,3.1815,3.1849,3.1851,3.1884,3.1866,3.1939,3.1876,3.1978,3.1918,3.1948,3.1959,3.1963,3.197,3.1898,3.2012,3.2204,3.2224,3.1977,3.1974,3.1972,0,3.1564,3.1652,3.1736,3.1756,3.1792,3.1833,3.185,3.188,3.1913,3.1956,3.1978,3.2029,3.2057,3.2098,3.2095,3.2049,3.2199,3.2135,3.2203,3.2203,3.2236,3.2234,3.2435,3.2255,3.2255,3.2255,3.2254,0,3.1716,3.1792,3.179,3.1842,3.1927,3.1916,3.2001,3.2013,3.2041,3.2096,3.2069,3.2121,3.2114,3.2167,3.2165,3.225,3.2263,3.2268,3.2266,3.227,3.2269,3.2289,3.228,3.226,3.2259,3.2258,3.2257,0,3.1862,3.1863,3.1953,3.1981,3.1989,3.2051,3.2075,3.2125,3.213,3.22,3.2216,3.2225,3.2286,3.2287,3.2358,3.2357,3.2461,3.2449,3.2449,3.2447,3.2515,3.2509,3.2736,3.2766,3.2567,3.2569,3.257,0,3.1958,3.2016,3.205,3.2084,3.2104,3.216,3.2194,3.2186,3.2223,3.2267,3.2312,3.2371,3.2417,3.2517,3.253,3.2585,3.2574,3.265,3.2582,3.2584,3.2575,3.2572,3.2578,3.2663,3.2665,3.2667,3.2668,0,3.213,3.2128,3.2177,3.2228,3.2269,3.2308,3.2344,3.2375,3.2371,3.2414,3.2476,3.2512,3.2584,3.2643,3.2696,3.2715,3.2692,3.269,3.2709,3.2713,3.2711,3.2713,3.2485,3.2685,3.2683,3.2682,3.2681,3.268,3.2254,3.2304,3.2336,3.2392,3.2419,3.2454,3.2503,3.2515,3.2566,3.2624,3.2617,3.2686,3.2721,3.2789,3.2813,3.2868,3.2841,3.2868,3.2875,3.2882,3.289,3.2702,3.2877,3.2877,3.2876,3.2876,3.2876,0,3.2424,3.2443,3.2495,3.2547,3.2592,3.2566,3.2606,3.2645,3.2707,3.274,3.2787,3.2859,3.2917,3.2936,3.2992,3.3033,3.3024,3.3048,3.3045,3.305,3.291,3.2888,3.3054,3.3054,3.3054,3.3054,3.3054,3.3054,3.2518,3.2602,3.2604,3.2702,3.2721,3.2788,3.2813,3.2846,3.2873,3.2955,3.3002,3.3014,3.3043,3.3101,3.3153,3.3158,3.318,3.3208,3.3208,3.3077,3.3059,3.3042,3.3022,3.3213,3.3213,3.3343,3.3345,3.3346]},{"header":{"parameterUnit":"m.s-1","parameterCategory":1,"la1":30.2991,"la2":30.254,"lo1":-89.0895,"lo2":-89.0444,"dy":0.0017,"dx":0.0017,"nx":28,"ny":28,"refTime":"2024-05-14T09:00:00:Z","depth":0,"parameterNumber":3,"parameterNumberName":"V-component_of_WINDS"},"data":[0,0,0,0,0,0,0,0,0,0,0,0,0,0,0,0,0,0,0,0,0,0,0,0,0,0,0,0,0,0,0,0,0,0,0,0,0,0,0,0,0,0,0,0,0,0,0,0,0,0,0,0,0,0,0,0,0,0,-1.8027,-1.8028,0,-1.8066,-1.8067,-1.8067,-1.8033,-1.8032,-1.803,-1.8029,-1.807,-1.8072,-1.8075,0,0,0,0,0,0,0,0,0,0,0,0,0,-1.7924,-1.7926,-1.8027,-1.8028,-1.8028,-1.8066,-1.8067,-1.8067,-1.8033,-1.8032,-1.803,-1.8028,-1.8069,-1.8072,-1.8075,0,0,0,0,0,0,0,0,0,0,0,0,0,-1.7967,-1.7927,-1.8027,-1.8016,-1.8015,-1.8066,-1.8067,-1.8068,-1.8034,-1.8031,-1.8029,-1.8027,-1.8068,-1.8072,-1.8075,-1.814,0,0,-1.8086,-1.8088,0,0,0,0,0,0,0,0,-1.7964,-1.797,-1.8017,-1.8017,-1.8016,-1.8043,-1.8046,-1.8092,-1.8034,-1.8027,-1.8029,-1.8026,-1.8063,-1.8067,-1.8079,-1.8142,-1.8144,-1.8087,-1.8089,-1.809,-1.8091,0,0,0,0,0,0,0,-1.7961,-1.7969,-1.8043,-1.8018,-1.8017,-1.8009,-1.8013,-1.8054,-1.8056,-1.8027,-1.8025,-1.803,-1.8062,-1.8075,-1.8079,-1.8144,-1.8087,-1.809,-1.8092,-1.8093,-1.8264,-1.8266,0,0,0,0,0,0,-1.7959,-1.7966,-1.8041,-1.8044,-1.7984,-1.8013,-1.8017,-1.8036,-1.8055,-1.8056,-1.8032,-1.8028,-1.807,-1.8075,-1.8081,-1.8158,-1.809,-1.8094,-1.8096,-1.8262,-1.8265,-1.8267,0,0,0,0,0,0,-1.7957,-1.7966,-1.804,-1.8005,-1.8013,-1.8017,-1.8039,-1.8038,-1.8051,-1.8059,-1.8059,-1.8045,-1.8069,-1.8076,-1.8126,-1.8159,-1.8095,-1.8099,-1.8259,-1.8263,-1.8266,-1.8314,0,0,0,0,0,0,-1.7955,-1.7966,-1.799,-1.8005,-1.8015,-1.8084,-1.8041,-1.804,-1.8057,-1.8053,-1.8071,-1.8072,-1.8068,-1.8121,-1.8129,-1.8163,-1.8102,-1.8256,-1.8261,-1.8265,-1.8309,-1.8318,-1.8326,0,0,0,0,0,-1.7951,-1.8002,-1.7991,-1.8001,-1.8045,-1.8086,-1.8091,-1.8085,-1.806,-1.8085,-1.809,-1.8072,-1.8154,-1.8126,-1.8136,-1.8171,-1.8254,-1.8259,-1.8264,-1.8305,-1.8317,-1.8326,0,0,0,0,0,0,-1.799,-1.8004,-1.7992,-1.8049,-1.8067,-1.808,-1.8111,-1.8097,-1.8122,-1.8117,-1.8108,-1.8112,-1.8165,-1.8173,-1.8141,-1.8235,-1.82,-1.8208,-1.8228,-1.8239,-1.8247,-1.8244,-1.8105,0,0,0,0,0,-1.8006,-1.8037,-1.8047,-1.8097,-1.8106,-1.8107,-1.8124,-1.8118,-1.8136,-1.8143,-1.8151,-1.817,-1.82,-1.822,-1.8248,-1.831,-1.8314,-1.834,-1.8348,-1.8355,-1.8362,-1.8396,-1.8408,-1.8285,-1.8285,-1.8284,0,0,-1.8038,-1.8049,-1.8069,-1.8105,-1.8118,-1.8151,-1.8113,-1.815,-1.8174,-1.8148,-1.8196,-1.8204,-1.8223,-1.828,-1.8306,-1.8288,-1.8397,-1.8362,-1.8368,-1.837,-1.8403,-1.8415,-1.8425,-1.8288,-1.8288,-1.8287,0,0,-1.8113,-1.8125,-1.8167,-1.8181,-1.8201,-1.8201,-1.8212,-1.8227,-1.8231,-1.8279,-1.8261,-1.829,-1.8342,-1.8357,-1.8372,-1.8455,-1.8439,-1.8464,-1.8509,-1.8543,-1.8553,-1.8561,-1.8591,-1.8602,-1.8471,-1.8471,-1.8471,0,-1.815,-1.8199,-1.8191,-1.8229,-1.8246,-1.8224,-1.8268,-1.8282,-1.831,-1.8322,-1.8302,-1.8368,-1.838,-1.844,-1.846,-1.8473,-1.8485,-1.8462,-1.8552,-1.856,-1.8568,-1.8597,-1.8608,-1.8474,-1.8473,-1.8473,-1.8473,0,-1.8244,-1.8279,-1.8311,-1.8339,-1.8359,-1.84,-1.8399,-1.8421,-1.8413,-1.8416,-1.8466,-1.8479,-1.851,-1.8524,-1.8517,-1.8584,-1.8573,-1.8553,-1.8517,-1.8583,-1.861,-1.8621,-1.8478,-1.8477,-1.8476,-1.8475,0,0,-1.8344,-1.8368,-1.838,-1.8393,-1.8414,-1.8441,-1.8481,-1.8511,-1.853,-1.8551,-1.8585,-1.863,-1.8612,-1.8628,-1.8623,-1.8653,-1.8718,-1.8629,-1.8629,-1.8645,-1.8794,-1.8809,-1.8822,-1.8708,-1.871,-1.8712,-1.8793,0,-1.8421,-1.849,-1.8485,-1.8551,-1.8583,-1.8564,-1.8599,-1.8616,-1.8621,-1.8649,-1.8654,-1.8686,-1.8659,-1.8669,-1.8698,-1.8704,-1.8748,-1.8698,-1.874,-1.8742,-1.8736,-1.8836,-1.8852,-1.8928,-1.8803,-1.8805,-1.8806,0,-1.8519,-1.8543,-1.8612,-1.8629,-1.8643,-1.8674,-1.8702,-1.8729,-1.8749,-1.875,-1.8769,-1.8759,-1.8801,-1.8765,-1.8823,-1.8789,-1.8806,-1.8812,-1.8815,-1.8818,-1.8778,-1.8843,-1.8951,-1.8963,-1.8822,-1.8821,-1.882,0,-1.8585,-1.8635,-1.8683,-1.8695,-1.8716,-1.8739,-1.8749,-1.8766,-1.8785,-1.881,-1.8822,-1.8851,-1.8868,-1.8891,-1.8889,-1.8863,-1.8948,-1.8912,-1.8951,-1.8951,-1.897,-1.8968,-1.9083,-1.8981,-1.8981,-1.898,-1.898,0,-1.8671,-1.8714,-1.8714,-1.8743,-1.8792,-1.8786,-1.8834,-1.8841,-1.8857,-1.8889,-1.8874,-1.8904,-1.89,-1.893,-1.8929,-1.8978,-1.8985,-1.8988,-1.8987,-1.8989,-1.8989,-1.9,-1.8995,-1.8983,-1.8983,-1.8982,-1.8982,0,-1.8753,-1.8754,-1.8806,-1.8822,-1.8827,-1.8862,-1.8876,-1.8904,-1.8908,-1.8948,-1.8957,-1.8962,-1.8998,-1.8998,-1.9039,-1.9038,-1.9098,-1.9091,-1.9091,-1.909,-1.9129,-1.9125,-1.9254,-1.9271,-1.9158,-1.9159,-1.916,0,-1.8808,-1.8841,-1.886,-1.888,-1.8892,-1.8924,-1.8943,-1.8939,-1.896,-1.8986,-1.9011,-1.9045,-1.9072,-1.9129,-1.9137,-1.9168,-1.9162,-1.9205,-1.9166,-1.9168,-1.9163,-1.9161,-1.9165,-1.9213,-1.9214,-1.9215,-1.9216,0,-1.8904,-1.8904,-1.8932,-1.8961,-1.8985,-1.9007,-1.9028,-1.9046,-1.9044,-1.9069,-1.9104,-1.9125,-1.9167,-1.9201,-1.9231,-1.9242,-1.9229,-1.9228,-1.9239,-1.9241,-1.924,-1.9242,-1.9112,-1.9225,-1.9224,-1.9223,-1.9223,-1.9222,-1.8975,-1.9003,-1.9022,-1.9054,-1.907,-1.909,-1.9118,-1.9125,-1.9155,-1.9188,-1.9184,-1.9224,-1.9244,-1.9284,-1.9297,-1.9329,-1.9314,-1.933,-1.9334,-1.9338,-1.9342,-1.9235,-1.9335,-1.9334,-1.9334,-1.9334,-1.9334,0,-1.9071,-1.9082,-1.9112,-1.9142,-1.9168,-1.9154,-1.9177,-1.9199,-1.9235,-1.9254,-1.9281,-1.9323,-1.9356,-1.9367,-1.94,-1.9423,-1.9418,-1.9432,-1.943,-1.9433,-1.9353,-1.9341,-1.9435,-1.9435,-1.9435,-1.9435,-1.9435,-1.9435,-1.9124,-1.9172,-1.9174,-1.923,-1.9241,-1.928,-1.9295,-1.9314,-1.9329,-1.9376,-1.9404,-1.9411,-1.9428,-1.9462,-1.9492,-1.9494,-1.9507,-1.9523,-1.9524,-1.9449,-1.9439,-1.9429,-1.9417,-1.9526,-1.9526,-1.9601,-1.9602,-1.9602]}]]